Location: ??????????
(44.2167°N, 135.5333°E)
Time: 15:13:02
(UTC+00:00)

DNEPR-1 R/B - Pass Details

Date: 15 June 2025
Orbit: 587 x 1327 km, 64.6° (Epoch: 15 July)

Event Time Altitude Azimuth Distance (km) Brightness Sun altitude
Rises 12:32:59 0° 207° (SSW) 3,762 7.3 -14.7°
Reaches altitude 10° 12:35:48 10° 206° (SSW) 2,695 6.5 -15.0°
Maximum altitude 12:41:59 74° 123° (ESE) 865 4.1 -15.6°
Drops below altitude 10° 12:47:04 10° 39° (NE) 2,230 6.7 -16.1°
Sets 12:49:13 0° 37° (NE) 3,071 7.4 -16.3°
